Погода в Альшееве

Россия / Республика Татарстан     54°45′12″N   48°16′54″E
темп.,
°C
ветер,
м/с
пор.,
м/с
влажн.,
%
обл.,
%
осадки,
мм/ч
давл.,
гПа
погр.,
м
22 января, пт
пт2200:00−11зюз4995100 0.7 1016394
03:00−13з389397 0.9 1016248
06:00−16з3395100 0.0 101647
09:00−16зсз2394100 0.0 101725
12:00−15з2293100 0.0 101841
15:00−15зсз1192100 0.0 101920
18:00−16в1192100 0.0 102020
21:00−15вюв3394100 0.0 102287
23 января, сб
сб2300:00−15вюв4696100 0.0 1022178
03:00−14юв5995100 0.3 1022268
06:00−12ююв61095100 0.7 1022320
09:00−10ююв71095100 1.4 1021312
12:00−8ююв6995100 1.6 1020277
15:00−5ююв6996100 2.3 1018238
18:000ю4799100 0.8 1018208
21:00+1зюз51199100 1.0 1018422
24 января, вс
вс2400:00+1юз48100100 0.1 1018210
03:00+1зюз61298100 0.3 1019397
06:00+1юз3795100 0.0 1020230
09:00+1ююз3797100 0.0 1021182
12:00+1ююз49100100 0.1 1022282
15:00+1ююз49100100 0.4 1022273
18:00+1ююз41097100 0.3 1023314
21:00+1ююз31094100 0.3 1024377
25 января, пн
пн2500:00+1ююз499295 0.1 1024341
03:00+1ююз4109297 0.2 1025402
06:00−1ю51091100 0.0 1025320
09:00−3ю4994100 0.0 1026257
12:00−3ю51092100 0.0 1026335
15:00−3ююв599496 0.0 1026268
18:00−3ююв6109596 0.0 1026499
21:00−2ююв6119398 0.1 1025591
26 января, вт
вт2600:00−2ю51094100 0.0 1025582
03:00−2ююв5994100 0.1 1025397
06:00−3ю41093100 0.0 1025392
09:00−3ю499499 0.1 1025577
12:00−2ю6991100 0.0 1025630
15:00−3ююв61093100 0.1 1024508
18:00−3ююв61193100 0.0 1023500
21:00−3ююв71394100 0.0 1022512